DW8241 Weather Reports


Display with metric or nautical units.
time (UTC)temp
F
wind
direction
speed
MPH
gust
MPH
rain 1hr
in
rain 24hr
in
rain mn
in
humidity
%
barometer
mb
20260504234541 40 314 0.0 0.0 0.00 0.02 0.02 81 1006.4
20260504233038 40 32 0.0 0.0 0.00 0.02 0.02 81 1006.6
20260504231553 40 32 0.0 18.0 0.00 0.02 0.02 83 1006.4
20260504230035 41 30 0.0 10.0 0.00 0.02 0.02 82 1006.3
20260504224537 40 1 6.0 11.0 0.00 0.02 0.02 86 1006.1
20260504223033 40 355 7.0 14.0 0.01 0.02 0.02 87 1006.1
20260504221532 40 28 2.0 12.0 0.01 0.02 0.02 85 1005.9
20260504220033 41 49 0.0 0.0 0.01 0.02 0.02 81 1005.6
20260504214528 39 345 0.0 12.0 0.01 0.02 0.02 85 1005.4
20260504213027 39 20 8.0 19.0 0.00 0.01 0.01 82 1005.6
20260504211527 44 314 10.0 16.0 0.00 0.01 0.01 66 1004.8
20260504210022 44 32 4.0 14.0 0.00 0.01 0.01 72 1004.6
20260504204523 43 356 6.0 17.0 0.00 0.01 0.01 71 1004.7
20260504203028 43 323 8.0 17.0 0.00 0.01 0.01 70 1004.8
20260504201520 44 351 7.0 15.0 0.00 0.01 0.01 75 1004.5
20260504200021 41 347 4.0 18.0 0.00 0.01 0.01 81 1004.5
20260504194531 42 352 9.0 30.0 0.00 0.01 0.01 77 1004.5
20260504193017 47 282 12.0 22.0 0.00 0.01 0.01 63 1003.6
20260504191514 43 335 12.0 24.0 0.00 0.01 0.01 69 1003.8
20260504190012 44 330 11.0 22.0 0.00 0.01 0.01 70 1003.8
20260504184513 43 315 12.0 19.0 0.00 0.01 0.01 67 1003.6
20260504183010 44 295 11.0 20.0 0.00 0.01 0.01 59 1003.5
20260504181509 45 350 13.0 22.0 0.00 0.01 0.01 52 1003.2
20260504180013 45 331 10.0 19.0 0.00 0.01 0.01 50 1003.2
20260504174507 45 333 11.0 19.0 0.00 0.01 0.01 49 1003.0
20260504173013 45 326 5.0 21.0 0.00 0.01 0.01 51 1003.0
20260504171505 44 327 7.0 23.0 0.00 0.01 0.01 52 1003.2
20260504081547 47 315 8.0 14.0 0.00 0.01 0.01 80 994.7
20260504050005 61 330 3.0 12.0 0.00 0.00 0.00 60 993.7
20260504044504 63 318 5.0 28.0 0.00 0.00 0.00 55 993.0
20260504043003 63 290 0.0 0.0 0.00 0.00 0.00 48 992.3
20260504041501 64 263 0.0 0.0 0.00 0.00 0.00 47 992.4
20260504040105 66 286 0.0 11.0 0.00 0.00 0.00 44 992.7
20260504034558 65 289 3.0 13.0 0.00 0.00 0.00 44 993.2
20260504033058 65 285 0.0 10.0 0.00 0.00 0.00 44 993.6
20260504031628 64 278 5.0 16.0 0.00 0.00 0.00 45 993.6
20260504030056 64 245 10.0 14.0 0.00 0.00 0.00 45 992.7
20260504024554 63 239 7.0 14.0 0.00 0.00 0.00 46 993.0
20260504023052 64 243 7.0 12.0 0.00 0.00 0.00 45 993.3
20260504021554 64 248 8.0 14.0 0.00 0.00 0.00 44 993.7
20260504020047 65 271 8.0 11.0 0.00 0.00 0.00 43 994.0
20260504014544 66 243 8.0 10.0 0.00 0.00 0.00 41 994.4
20260504013040 68 245 7.0 13.0 0.00 0.00 0.00 39 994.8
20260504011538 70 260 9.0 14.0 0.00 0.00 0.00 37 995.2
20260504010041 70 259 8.0 15.0 0.00 0.00 0.00 36 995.5
20260504004533 71 262 9.0 16.0 0.00 0.00 0.00 35 996.0
20260504003031 72 286 12.0 20.0 0.00 0.00 0.00 34 996.3
20260504001529 73 278 12.0 20.0 0.00 0.00 0.00 31 996.5
20260504000026 74 302 13.0 20.0 0.00 0.00 0.00 29 996.9